User: anonymous   Login
Location: Unspecified
(0.0000°N, 0.0000°E)
Time: 05:59:48
(UTC+00:00)
Language:

ISIS 1 - Orbit

View from above orbital plane
View from above orbital plane
View from above satellite
View from above satellite

Ground track
Ground track

The orbit data is extracted from the following two-line orbital elements,

1  3669U 69009A   18267.52644090 +.00000055 +00000-0 +29911-4 0  9998
2  3669 088.4149 096.7802 1711830 180.3371 179.6649 11.29458949041049
Epoch (UTC): 24 September 2018 12:38:04
Eccentricity: 0.1711830
inclination: 88.4149°
perigee height: 576 km
apogee height: 3449 km
right ascension of ascending node: 96.7802°
argument of perigee: 180.3371°
revolutions per day: 11.29458949
mean anomaly at epoch: 179.6649°
orbit number at epoch: 4104

The dashed part of the orbit path shows where the satellite is in the earth's shadow,  

DLR